Other Public Products
Issued by NWS Grand Forks, ND

Home | Current Version | Previous Version | Text Only | Print | Product List | Glossary Off
Versions: 1 2 3 4 5 6 7 8 9 10 11 12 13 14 15 16 17 18 19 20 21 22 23 24 25 26 27 28 29 30 31 32 33 34 35 36 37 38 39 40 41 42 43 44 45 46 47 48 49 50

000
FPUS83 KFGF 261410
OPUFGF
PRAIRIE TO PINES WEATHER ROUNDUP
NATIONAL WEATHER SERVICE EASTERN NORTH DAKOTA/GRAND FORKS ND
900 AM CDT THU MAR 26 2015

 **SATELLITE DATA USED TO AUGMENT SKY COVER AT AUTOMATED STATIONS**
 *****  WEATHER ACROSS EASTERN NORTH DAKOTA  *****

CITY           SKY/WX    TMP DP  RH WIND       PRES   REMARKS
GRAND FORKS    MOSUNNY   24  18  77 N10       30.25R WCI  14
GRAND FORKS AF SUNNY     23  17  79 N10       30.25R WCI  12
GRAND CITY NWS   N/A     23 N/A N/A N13         N/A  WCI  11
BUXTON         NOT AVBL
DEVILS LAKE    SUNNY     23  18  80 NE8       30.24R WCI  14
FARGO          PTSUNNY   24  18  77 NW12      30.23R WCI  13
WAHPETON ARPT  SUNNY     27  19  74 N16       30.23R WCI  14
$$

 *****  WEATHER ACROSS CENTRAL AND WESTERN NORTH DAKOTA  *****

CITY           SKY/WX    TMP DP  RH WIND       PRES   REMARKS
JAMESTOWN      CLOUDY    27  22  81 N9        30.21R WCI  18
BISMARCK       CLOUDY    27  24  89 E5        30.19R WCI  22
MINOT          CLOUDY    27  22  81 NE7       30.20R WCI  19
MINOT AFB      CLOUDY    27  27  98 E7        30.20R WCI  20
GARRISON         N/A     28  23  81 E7        30.18R WCI  21
WILLISTON      CLOUDY    30  26  85 E5        30.16S
DICKINSON      LGT SNOW  28  25  88 SE3       30.10R FOG
HETTINGER      LGT SNOW  29  26  89 CALM      30.11S FOG
$$

 *****  OTHER OBSERVATIONS NORTHEAST NORTH DAKOTA  *****

CITY           SKY/WX    TMP DP  RH WIND       PRES   REMARKS
WALHALLA         N/A     21  21 100 N6        30.29R WCI  14
LANGDON        NOT AVBL
CAVALIER         N/A     23  19  86 N8        30.28S WCI  14
GRAFTON        NOT AVBL
CANDO          NOT AVBL
FORT TOTTEN    NOT AVBL
ROLLA          PTSUNNY   21  18  86 E5        30.24R WCI  15
RUGBY          CLOUDY    25  23  93 E10       30.23S WCI  15
 ***** THE ABOVE OBSERVATIONS ARE NON NWS ARE NOT QUALITY
        CONTROLLED AND MAY MIS-REPORT RAIN FOR SNOW...
$$

 *****  OTHER OBSERVATIONS SOUTHEAST NORTH DAKOTA *****

CITY           SKY/WX    TMP DP  RH WIND       PRES   REMARKS
COOPERSTOWN    NOT AVBL
VALLEY CITY    CLOUDY    25  25 100 NE13      30.22R WCI  13
OAKES            N/A     27  25  93 N9        30.20F WCI  17
GWINNER        CLOUDY    28  28 100 N8          N/A  WCI  20
SHEYENNE NWR     N/A     26  19  75 NE12      29.95  WCI  16
BUFFALO        NOT AVBL
WYNDMERE       NOT AVBL
 ***** THE ABOVE OBSERVATIONS ARE NON NWS ARE NOT QUALITY
       CONTROLLED AND MAY MIS-REPORT RAIN FOR SNOW...
$$

  *****  WEATHER ACROSS NORTHERN MINNESOTA  *****

CITY           SKY/WX    TMP DP  RH WIND       PRES   REMARKS
FLAG ISLAND    SUNNY     16   7  67 N15       30.21R WCI   1
WARROAD        MOSUNNY   18  10  73 N8        30.22S WCI   7
ROSEAU         SUNNY     19  10  68 N10       30.23S WCI   8
HALLOCK        SUNNY     21  16  79 N9        30.27R WCI  11
THF RVR FALLS  SUNNY     21  10  63 N14       30.22R WCI   8
HALSTAD        NOT AVBL
FOSSTON        FLURRIES  21  16  79 N16       30.19R WCI   7
BAUDETTE       SUNNY     19  11  70 N12       30.18R WCI   7
WASKISH        LGT SNOW  21  16  79 N5        30.17S WCI  15
CROOKSTON      FLURRIES  25  19  80 N12       30.25R WCI  14
$$
  *****  WEATHER ACROSS CENTRAL AND WEST MINNESOTA  *****

CITY           SKY/WX    TMP DP  RH WIND       PRES   REMARKS
BEMIDJI        FLURRIES  21  14  73 N9G16     30.15R WCI  11
PARK RAPIDS    CLOUDY    24  15  68 N14       30.13R WCI  12
WADENA         CLOUDY    21  18  86 NW7       30.14R WCI  13
DETROIT LAKES  MIX PCPN  23  21  93 N13       30.17R WCI  11
MOORHEAD       SUNNY     25  21  86 N16       30.23R WCI  12
FERGUS FALLS   SUNNY     23  18  80 N9        30.22R WCI  13
ELBOW LAKE     CLOUDY    24  19  82 N13       30.18R WCI  12
MORRIS MN      SUNNY     27  19  74 N12       30.18S WCI  16
STAPLES        CLOUDY    23  18  80 NW7       30.13S WCI  15
WHEATON        PTSUNNY   25  19  80 NW10      30.23R WCI  15
$$
  *****  WEATHER ELSEWHERE ACROSS MINNESOTA  *****

CITY           SKY/WX    TMP DP  RH WIND       PRES   REMARKS
DULUTH         FLURRIES  22  12  65 N20G29    30.04S WCI   7
INTRNTL FALLS  SUNNY     16   4  59 N13       30.17R WCI   2
ELY            PTSUNNY   14   5  67 NW15G22   30.08R WCI  -1
CLOQUET        FLURRIES  23  12  63 NW15G24   30.07S WCI  10
BRAINERD       CLOUDY    26  16  65 N12       30.12R WCI  16
HIBBING        MIX PCPN  18   9  68 NW21      30.10R WCI   1
ALEXANDRIA     PTSUNNY   23  16  74 NW15      30.16R WCI  10
SAINT CLOUD    CLOUDY    27  18  69 NW15      30.11R WCI  15
MINNEAPOLIS    CLOUDY    29  20  69 NW10      30.10R WCI  20
$$

  *****  WEATHER ACROSS SOUTH DAKOTA  *****

CITY           SKY/WX    TMP DP  RH WIND       PRES   REMARKS
SIOUX FALLS    MOSUNNY   30  21  69 NW8       30.18S WCI  22
BROOKINGS      NOT AVBL
WATERTOWN      MOSUNNY   28  24  85 NE6       30.17R WCI  22
HURON          MOSUNNY   24  19  81 NW6       30.21S WCI  17
SISSETON         N/A     27  24  89 N9        30.21R WCI  18
ABERDEEN       CLOUDY    29  24  82 NE6       30.21R WCI  23
MITCHELL       SUNNY     26  20  77 NW3       30.22S
PIERRE         CLOUDY    25  21  85 S3        30.15F
MOBRIDGE       CLOUDY    29  22  75 SE6       30.13S WCI  23
RAPID CITY     CLOUDY    45  30  55 NW21G29   30.06S
$$

  *****  SOME WEATHER IN NEARBY STATES *****

CITY           SKY/WX    TMP DP  RH WIND       PRES   REMARKS
GLASGOW MT     MOCLDY    31  29  92 SE13      30.11R WCI  21
GREAT FALLS MT CLOUDY    45  33  63 SW16      30.12S
CHEYENNE WY    CLOUDY    35  18  49 W21       30.18S WCI  24
SCOTTSBLUFF NE CLOUDY    32  28  85 W9        30.16S WCI  24
OMAHA NE       MOSUNNY   33  24  69 CALM      30.24R
DES MOINES IA  MOSUNNY   35  23  61 NW13      30.17R
DAVENPORT IA   SUNNY     32  25  75 NW10      30.07S WCI  24
CHICAGO IL     PTSUNNY   34  26  72 NW8       29.97S
EAU CLAIRE WI  CLOUDY    31  19  61 N7        30.03R WCI  24
LA CROSSE WI   CLOUDY    34  22  61 NW15      30.03R WCI  24
$$

  *****  SOME NATIONAL WEATHER *****

CITY           SKY/WX    TMP DP  RH WIND       PRES   REMARKS
LA GUARDIA NY  LGT RAIN  47  42  83 S6        29.95F
RALEIGH NC     CLOUDY    66  62  87 SW12      29.96S
ATLANTA GA     PTSUNNY   66  57  72 VRB6      30.00S
NEW ORLEANS LA LGT RAIN  69  66  90 VRB3      29.92S FOG
OKLAHOMA CITY  SUNNY     44  36  72 N23G31    30.22R
ALBUQUERQUE NM MOSUNNY   37  25  61 N8        30.34R
SALT LAKE CITY PTCLDY    37  22  54 SE7       30.40R
LOS ANGELES CA PTCLDY    58  50  75 E3        30.06R
BOISE ID       CLEAR     37  33  85 CALM      30.42R
SEATTLE WA     CLOUDY    51  48  89 SE6       30.29F
$$

*** WEATHER ACROSS MANITOBA...SASKATCHEWAN AND ONTARIO ***
                ***ONTARIO***

CITY           SKY/WX    TMP DP  RH WIND       PRES   REMARKS
GERALDTON      FLURRIES   7   0  72 N16       30.00S WCI -11
THUNDER BAY    PTSUNNY   16   7  67 N9        30.08R WCI   4
SIOUX LOOKOUT  MOSUNNY    5  -2  72 N7        30.17R WCI  -7
TORONTO        CLOUDY    39  32  75 SW7       29.85F
BIG TROUT LK   MOSUNNY    0  -8  71 N9        30.17R WCI -16
PICKLE LAKE    MOSUNNY    0  -9  65 NW3       30.14R
DRYDEN         SUNNY      7   0  72 N9G17     30.17R WCI  -7
KENORA         NOT AVBL
$$
                *** MANITOBA***

CITY           SKY/WX    TMP DP  RH WIND       PRES   REMARKS
BRANDON        PTSUNNY   21  18  86 E3        30.28R
DAUPHIN        FLURRIES  16  14  93 SE5       30.30R WCI   9
ISLAND LAKE    SUNNY     -4 -11  71 W5        30.31R WCI -15
PILOT MOUND      N/A     19  16  86 N1          N/A
THE PAS        MOSUNNY    3  -2  78 VRB2      30.34R
THOMPSON       SUNNY     -2 -11  65 VRB2      30.36S
WINNIPEG       PTSUNNY   18  14  86 N9        30.31R WCI   6
LYNN LAKE      SUNNY    -13 -18  77 CALM      30.32S
CHURCHILL      SUNNY     -8 -15  71 NW13      30.32R WCI -28
GILLAM         SUNNY     -4 -13  65 W7        30.34R WCI -18
$$
                ***SASKATCHEWAN***

CITY           SKY/WX    TMP DP  RH WIND       PRES   REMARKS
ESTEVAN        PTSUNNY   27  23  86 E8        30.20R WCI  18
KINDERSLEY     MOCLDY    30  27  86 E5        30.08S
LLOYDMINSTER   CLOUDY    19  18  93 SE6       30.07S FOG     WCI  11
PRINCE ALBERT  MOCLDY    23  18  80 E6        30.22R WCI  16
REGINA         PTSUNNY   25  21  86 SE13      30.17S WCI  13



USA.gov is the U.S. government's official web portal to all federal, state and local government web resources and services.